Погода в Курае

Россия / Красноярский край     56°41′20″N   95°29′26″E
темп.,
°C
ветер,
м/с
пор.,
м/с
влажн.,
%
обл.,
%
осадки,
мм/ч
давл.,
гПа
погр.,
м
4 марта, чт
чт401:00−27вюв339678 0.0 103050
04:00−25вюв359497 0.0 1030123
07:00−24юв369599 0.0 1031180
10:00−20юв4697100 0.1 1030241
13:00−14ююв4693100 0.3 1028312
16:00−10ююв4692100 0.0 1026324
19:00−11ююв4694100 0.1 1025130
22:00−9ю4792100 0.0 1024163
5 марта, пт
пт501:00−8ююз4887100 0.0 1022194
04:00−9ю4787100 0.0 1021187
07:00−9ю4886100 0.0 1020194
10:00−6ю5885100 0.0 1018291
13:00−2ю4684100 0.0 1016382
16:00−2ю588854 0.0 1014391
19:00−3ююз5128477 0.0 1015309
22:00−3юз61387100 0.0 1015685
6 марта, сб
сб601:00−5юз5158395 0.0 1017550
04:00−6юз51483100 0.0 1018599
07:00−6юз41286100 0.0 1019502
10:00−4зюз61284100 0.0 10181401
13:00−2зюз61179100 0.1 10171418
16:00−2зюз51183100 0.1 10161339
19:00−3ююз4993100 0.3 1016352
22:00−3юз51387100 0.1 1014713
7 марта, вс
вс701:00−3юз41386100 0.1 1013774
04:00−4юз41288100 0.0 1012698
07:00−4юз41188100 0.0 1012535
10:00−2зюз51285100 0.0 10121190
13:00−1зюз71281100 0.1 10131219
16:00−1зюз61279100 0.1 10151478
19:00−4юз41184100 0.3 1017291
22:00−5юз3488100 0.0 101781
8 марта, пн
пн801:00−5ююз2390100 0.0 101644
04:00−4ююз41087100 0.0 1014363
07:00−4ююз51287100 0.0 1013370
10:000юз51382100 0.0 1011958
13:00+1юз51296100 0.0 1011892
16:00+1юз51391100 0.0 1010983
19:000юз41284100 0.0 1011439
22:00−2зюз41190100 0.0 1013382